Location: Saratoga Springs
(43.0831°N, 73.7850°W)
Time: 07:53:40
(UTC-04:00)

Vanguard 2 Rocket - Pass Details

Date: 19 April 2024
Orbit: 556 x 3304 km, 32.9° (Epoch: 22 May)

Event Time Altitude Azimuth Distance (km) Brightness Sun altitude
Rises 22:50:26 0° 239° (WSW) 6,296 11.2 -28.4°
Reaches altitude 10° 22:54:17 10° 236° (SW) 5,561 10.9 -28.8°
Maximum altitude 23:11:50 56° 164° (SSE) 3,703 9.5 -30.5°
Drops below altitude 10° 23:30:25 10° 94° (E) 5,860 10.7 -32.0°
Sets 23:34:35 0° 90° (E) 6,639 11.1 -32.3°
